COSMOS 2535 DEB, 44632

Orbit data source: Space-Track

COSMOS 2535 DEB, 44632 is space debris in SSO originally from a launch on Wed, 10 Jul 2019 UTC launched from the Plesetsk Missile And Space Complex (PKMTR). Debris objects in space refer to the collection of defunct objects orbiting the Earth. Examples of debris include non-operational satellites, rocket bodies, and fragments generated from explosions, collisions, or faulty payload assembly.

Loading next visibility...
Identifier
44632, 2019-039J
Orbit
SSO
Country
Flag of CISCIS
Related business
Manufacturer
Unknown
Mission
Spacecraft
Bus & Motor
Unknown
Mass
Unknown
Launch date (UTC)
2019-07-10 (7 years ago)
Launch vehicle
Unknown
Launch site
Plesetsk Missile And Space Complex (PKMTR)
Object type
Payload
Rocket body
Debris
Shape & HBR
Unknown shape, 0.1 m
Radar Cross Section
Small (<0.1 m²)

Expand to show TLE details & history
Last TLE update: 15 hours ago

TLE from 15 hours ago
0 COSMOS 2535 DEB
1 44632U 19039J   26074.33903517  .00009298  00000-0  51852-3 0  9993
2 44632  97.5281 114.8150 0010989 354.1764   5.9338 15.13744707350803
Epoch: 2026-03-15T08:08Z
TLE epoch observation values (Epoch: 2026-03-15T08:08:12.638Z)
Latitude
-0.00002°
Longitude
179.81506°
Altitude
520.324 km
Speed
7.607 km/s
True Right ascension
07h 39m 15s
True Declination
0° 00' 00"
Sunlit
Object was in full shadow at epoch
Visualization orbit readout
Latitude
Unknown
Longitude
Unknown
Altitude
Unknown
Speed
Unknown
Apparent Right ascension
Unknown
Apparent Declination
Unknown
Sunlit
N/A
Visualization observer readout
Local Sidereal Time
04:07:49
Azimuth
Unknown
Elevation
Unknown
Doppler factor
Unknown
Orbital elements
Apogee altitude
529.354 km
Perigee altitude
514.189 km
Semi-major axis
6,899.909 km
Eccentricity
0.0011
Inclination
97.5281°
RAAN
114.815°
Arg. of periapsis
354.1764°
True anomaly
5.94684°
Mean anomaly
5.9338°
Eccentric anomaly
5.94032°
Mean motion
3.78685 °/min
Orbital period
95.07 mins
BSTAR
0.00051852
Loading maneuver chart data...
Computing Atmospheric mass density...

Documentation

Showing up to 5 results
|